Home > Weather > Monrovia > Past weeks

Flag for Liberia Past Weather in Monrovia, Liberia — Yesterday and Last 2 Weeks

Now
77 °F

Rain. Broken clouds.


Feels Like: 78 °F
Forecast: 76 / 80 °F
Wind: 5 mph from South

Location: Roberts Field

Current Time: Aug 26, 2016 at 12:10:17 PM

Latest Report: Aug 26, 2016 at 11:30 AM


Visibility: 3 mi

Pressure: 29.95 "Hg

Humidity: 94%

Dew Point: 75 °F

Location of MonroviaLocation

Past Weather in Monrovia — Graph

°F

Monrovia Temperature Yesterday

Maximum temperature yesterday: 75 °F (at 12:00 AM)
Minimum temperature yesterday: 72 °F (at 1:30 PM)
Average temperature yesterday: 74 °F

High & Low Weather Summary for the Past Weeks

 TemperatureHumidityPressure
High84 °F (Aug 11, 11:00 AM)100% (Aug 13, 4:30 AM)30.01 "Hg (Aug 13, 4:30 AM)
Low72 °F (Aug 16, 3:30 AM)66% (Aug 16, 12:00 PM)29.86 "Hg (Aug 13, 5:00 PM)
Average77 °F91%29.94 "Hg
* Reported Aug 11 11:00 AM — Aug 26 11:00 AM, Monrovia, Weather by CustomWeather, © 2016

Note: Actual official high and low records may vary slightly from our data, if they occured in-between our weather recording intervals... More about our weather records

Advertising

Monrovia Weather History for the Previous 24 Hours

Scroll right to see more
 ConditionsComfort  
Time TempWeatherWind HumidityBarometerVisibility
11:00 AM
Fri, Aug 26
75 °FRain. Mostly cloudy.6 mph94%29.95 "Hg2 mi
10:30 AM75 °FRain. Mostly cloudy.8 mph94%29.98 "Hg2 mi
10:00 AM75 °FRain. Mostly cloudy.No wind94%29.98 "Hg1 mi
9:30 AM77 °FDrizzle. Broken clouds.No wind94%29.95 "Hg2 mi
9:00 AM75 °FPartly sunny.No wind94%29.95 "Hg5 mi
8:30 AM75 °FDrizzle. Mostly cloudy.No wind94%29.95 "Hg1 mi
8:00 AM75 °FDrizzle. Broken clouds.No wind94%29.95 "Hg2 mi
7:30 AM75 °FRain. Partly cloudy.No wind94%29.95 "Hg3 mi
7:00 AM73 °FPassing clouds.No wind94%29.92 "Hg4 mi
6:30 AM73 °FPassing clouds.No wind94%29.92 "Hg4 mi
6:00 AM73 °FRain. Passing clouds.No wind94%29.92 "Hg4 mi
5:30 AM73 °FRain. Passing clouds.No wind94%29.92 "Hg4 mi
5:00 AM73 °FRain. Passing clouds.No wind94%29.89 "Hg4 mi
4:00 AM73 °FRain. Passing clouds.No wind94%29.89 "Hg4 mi
3:00 AM73 °FPassing clouds.No wind94%29.89 "HgN/A
2:30 AM73 °FPassing clouds.No wind94%29.89 "HgN/A
2:00 AM73 °FPassing clouds.No wind94%29.89 "Hg6 mi
1:30 AM73 °FPassing clouds.No wind94%29.92 "Hg5 mi
1:00 AM73 °FPassing clouds.No wind94%29.92 "Hg4 mi
12:30 AM73 °FPassing clouds.No wind94%29.92 "HgN/A
12:00 AM73 °FPassing clouds.No wind94%29.95 "HgN/A
11:30 PM
Thu, Aug 25
73 °FPassing clouds.No wind94%29.95 "HgN/A
10:00 PM73 °FPassing clouds.No wind94%29.95 "HgN/A
9:30 PM73 °FPassing clouds.No wind94%29.92 "HgN/A
9:00 PM73 °FPassing clouds.No wind94%29.92 "HgN/A
8:30 PM73 °FPartly cloudy.No wind94%29.92 "HgN/A
8:00 PM73 °FPartly cloudy.No wind94%29.92 "HgN/A
7:30 PM73 °FBroken clouds.No wind94%29.89 "HgN/A
7:00 PM75 °FBroken clouds.No wind94%29.89 "HgN/A
6:30 PM75 °FPartly sunny.8 mph94%29.89 "HgN/A
6:00 PM75 °FPartly sunny.No wind94%29.89 "HgN/A
5:30 PM75 °FPartly sunny.No wind94%29.89 "HgN/A
5:00 PM75 °FPartly sunny.No wind94%29.86 "HgN/A
4:30 PM75 °FLight rain. Partly sunny.No wind94%29.89 "Hg6 mi
4:00 PM75 °FPartly sunny.No wind94%29.89 "HgN/A
3:30 PM75 °FLight rain. Partly sunny.5 mph94%29.89 "Hg6 mi
3:00 PM75 °FLight rain. Partly sunny.No wind94%29.89 "Hg6 mi
2:30 PM75 °FLight rain. Partly sunny.No wind94%29.92 "Hg5 mi
2:00 PM73 °FRain. Cloudy.No wind94%29.92 "Hg4 mi
1:30 PM72 °FRain. Mostly cloudy.No wind94%29.89 "Hg4 mi
1:00 PM73 °FRain. Mostly cloudy.No wind94%29.92 "Hg4 mi
12:30 PM73 °FRain. Mostly cloudy.No wind94%29.95 "Hg4 mi
12:00 PM73 °FRain. Mostly cloudy.No wind94%29.98 "Hg4 mi
Weather by CustomWeather, © 2016

See weather overviewHow to use our weather pages